| time (UTC) | temp F | wind direction | speed MPH | gust MPH | rain 1hr in | rain 24hr in | rain mn in | humidity % | barometer mb |
| 20260506025348 | 72 | 209 | 6.0 | 18.0 | 0.00 | 0.00 | 0.00 | 58 | 1008.1 |
| 20260506025147 | 72 | 175 | 10.0 | 18.0 | 0.00 | 0.00 | 0.00 | 58 | 1008.2 |
| 20260506024836 | 72 | 218 | 8.0 | 16.0 | 0.00 | 0.00 | 0.00 | 58 | 1008.2 |
| 20260506024634 | 72 | 219 | 7.0 | 16.0 | 0.00 | 0.00 | 0.00 | 57 | 1008.2 |
| 20260506024346 | 72 | 204 | 9.0 | 16.0 | 0.00 | 0.00 | 0.00 | 57 | 1008.1 |
| 20260506024143 | 73 | 216 | 7.0 | 12.0 | 0.00 | 0.00 | 0.00 | 57 | 1008.1 |
| 20260506023853 | 73 | 189 | 7.0 | 15.0 | 0.00 | 0.00 | 0.00 | 56 | 1008.1 |
| 20260506023631 | 73 | 214 | 8.0 | 15.0 | 0.00 | 0.00 | 0.00 | 56 | 1008.2 |
| 20260506023340 | 73 | 181 | 5.0 | 15.0 | 0.00 | 0.00 | 0.00 | 56 | 1008.1 |
| 20260506023159 | 73 | 174 | 7.0 | 15.0 | 0.00 | 0.00 | 0.00 | 55 | 1008.1 |
| 20260506022906 | 73 | 164 | 6.0 | 18.0 | 0.00 | 0.00 | 0.00 | 55 | 1008.1 |
| 20260506022647 | 73 | 182 | 7.0 | 18.0 | 0.00 | 0.00 | 0.00 | 54 | 1008.1 |
| 20260506022333 | 73 | 235 | 8.0 | 18.0 | 0.00 | 0.00 | 0.00 | 54 | 1008.1 |
| 20260506022135 | 73 | 227 | 11.0 | 17.0 | 0.00 | 0.00 | 0.00 | 54 | 1008.1 |
| 20260506021841 | 73 | 232 | 7.0 | 18.0 | 0.00 | 0.00 | 0.00 | 53 | 1008.0 |
| 20260506021705 | 73 | 214 | 5.0 | 18.0 | 0.00 | 0.00 | 0.00 | 53 | 1008.0 |
| 20260506021409 | 74 | 206 | 7.0 | 18.0 | 0.00 | 0.00 | 0.00 | 53 | 1008.1 |
| 20260506021208 | 74 | 199 | 9.0 | 18.0 | 0.00 | 0.00 | 0.00 | 52 | 1008.1 |
| 20260506020858 | 74 | 200 | 9.0 | 17.0 | 0.00 | 0.00 | 0.00 | 52 | 1008.0 |
| 20260506020653 | 74 | 197 | 6.0 | 17.0 | 0.00 | 0.00 | 0.00 | 51 | 1008.0 |
| 20260506020405 | 74 | 214 | 8.0 | 19.0 | 0.00 | 0.00 | 0.00 | 51 | 1008.0 |
| 20260506020141 | 74 | 203 | 8.0 | 19.0 | 0.00 | 0.00 | 0.00 | 51 | 1008.0 |
| 20260506015832 | 74 | 239 | 7.0 | 19.0 | 0.00 | 0.00 | 0.00 | 50 | 1008.0 |
| 20260506015648 | 74 | 200 | 12.0 | 19.0 | 0.00 | 0.00 | 0.00 | 50 | 1007.9 |
| 20260506015339 | 75 | 225 | 8.0 | 15.0 | 0.00 | 0.00 | 0.00 | 49 | 1007.9 |
| 20260506015158 | 75 | 202 | 8.0 | 16.0 | 0.00 | 0.00 | 0.00 | 49 | 1007.9 |
| 20260506014847 | 75 | 224 | 9.0 | 16.0 | 0.00 | 0.00 | 0.00 | 49 | 1008.0 |
| 20260506014644 | 75 | 225 | 9.0 | 16.0 | 0.00 | 0.00 | 0.00 | 49 | 1007.9 |
| 20260506014335 | 75 | 173 | 9.0 | 16.0 | 0.00 | 0.00 | 0.00 | 48 | 1007.9 |
| 20260506014134 | 75 | 209 | 7.0 | 13.0 | 0.00 | 0.00 | 0.00 | 48 | 1007.8 |
| 20260506013841 | 75 | 227 | 7.0 | 12.0 | 0.00 | 0.00 | 0.00 | 48 | 1007.8 |
| 20260506013643 | 75 | 195 | 6.0 | 12.0 | 0.00 | 0.00 | 0.00 | 48 | 1007.8 |
| 20260506013410 | 75 | 212 | 6.0 | 11.0 | 0.00 | 0.00 | 0.00 | 48 | 1007.7 |
| 20260506013132 | 75 | 206 | 5.0 | 11.0 | 0.00 | 0.00 | 0.00 | 48 | 1007.8 |
| 20260506012838 | 76 | 199 | 6.0 | 10.0 | 0.00 | 0.00 | 0.00 | 48 | 1007.7 |
| 20260506012640 | 76 | 204 | 6.0 | 11.0 | 0.00 | 0.00 | 0.00 | 48 | 1007.7 |
| 20260506012407 | 76 | 208 | 4.0 | 12.0 | 0.00 | 0.00 | 0.00 | 48 | 1007.5 |
| 20260506012149 | 76 | 182 | 5.0 | 12.0 | 0.00 | 0.00 | 0.00 | 47 | 1007.6 |
| 20260506011836 | 76 | 190 | 5.0 | 12.0 | 0.00 | 0.00 | 0.00 | 47 | 1007.5 |
| 20260506011639 | 76 | 168 | 7.0 | 12.0 | 0.00 | 0.00 | 0.00 | 47 | 1007.5 |
| 20260506011345 | 76 | 220 | 7.0 | 13.0 | 0.00 | 0.00 | 0.00 | 47 | 1007.5 |
| 20260506011142 | 76 | 187 | 4.0 | 10.0 | 0.00 | 0.00 | 0.00 | 47 | 1007.5 |
| 20260506010833 | 76 | 229 | 6.0 | 10.0 | 0.00 | 0.00 | 0.00 | 47 | 1007.5 |
| 20260506010632 | 76 | 203 | 6.0 | 10.0 | 0.00 | 0.00 | 0.00 | 46 | 1007.4 |
| 20260506010343 | 76 | 268 | 5.0 | 10.0 | 0.00 | 0.00 | 0.00 | 46 | 1007.4 |
| 20260506010142 | 76 | 241 | 6.0 | 10.0 | 0.00 | 0.00 | 0.00 | 46 | 1007.4 |
| 20260506005833 | 76 | 212 | 5.0 | 11.0 | 0.00 | 0.00 | 0.00 | 46 | 1007.4 |
| 20260506005631 | 76 | 226 | 5.0 | 14.0 | 0.00 | 0.00 | 0.00 | 46 | 1007.4 |
| 20260506005343 | 76 | 226 | 5.0 | 14.0 | 0.00 | 0.00 | 0.00 | 45 | 1007.3 |
| 20260506005140 | 77 | 241 | 5.0 | 16.0 | 0.00 | 0.00 | 0.00 | 45 | 1007.3 |
| 20260506004852 | 77 | 235 | 9.0 | 16.0 | 0.00 | 0.00 | 0.00 | 45 | 1007.3 |
| 20260506004651 | 77 | 229 | 7.0 | 16.0 | 0.00 | 0.00 | 0.00 | 44 | 1007.2 |
| 20260506004341 | 77 | 185 | 9.0 | 16.0 | 0.00 | 0.00 | 0.00 | 44 | 1007.2 |
| 20260506004139 | 77 | 227 | 5.0 | 12.0 | 0.00 | 0.00 | 0.00 | 43 | 1007.2 |
| 20260506003849 | 77 | 211 | 5.0 | 12.0 | 0.00 | 0.00 | 0.00 | 42 | 1007.2 |
| 20260506003647 | 77 | 207 | 7.0 | 12.0 | 0.00 | 0.00 | 0.00 | 42 | 1007.2 |
| 20260506003338 | 77 | 195 | 4.0 | 11.0 | 0.00 | 0.00 | 0.00 | 42 | 1007.2 |
| 20260506003157 | 77 | 214 | 5.0 | 11.0 | 0.00 | 0.00 | 0.00 | 42 | 1007.1 |
| 20260506002848 | 77 | 175 | 5.0 | 11.0 | 0.00 | 0.00 | 0.00 | 42 | 1007.0 |
| 20260506002645 | 77 | 210 | 4.0 | 14.0 | 0.00 | 0.00 | 0.00 | 41 | 1007.0 |
| 20260506002335 | 77 | 172 | 6.0 | 14.0 | 0.00 | 0.00 | 0.00 | 41 | 1006.9 |
| 20260506002134 | 77 | 180 | 7.0 | 14.0 | 0.00 | 0.00 | 0.00 | 41 | 1006.9 |
| 20260506001839 | 77 | 189 | 6.0 | 12.0 | 0.00 | 0.00 | 0.00 | 40 | 1006.8 |
| 20260506001642 | 77 | 230 | 5.0 | 10.0 | 0.00 | 0.00 | 0.00 | 40 | 1006.8 |
| 20260506001347 | 78 | 214 | 5.0 | 10.0 | 0.00 | 0.00 | 0.00 | 40 | 1006.8 |
| 20260506001208 | 78 | 187 | 5.0 | 9.0 | 0.00 | 0.00 | 0.00 | 40 | 1006.8 |
| 20260506000836 | 78 | 204 | 3.0 | 9.0 | 0.00 | 0.00 | 0.00 | 40 | 1006.8 |
| 20260506000637 | 78 | 226 | 5.0 | 9.0 | 0.00 | 0.00 | 0.00 | 40 | 1006.8 |
| 20260506000346 | 78 | 203 | 4.0 | 10.0 | 0.00 | 0.00 | 0.00 | 40 | 1006.7 |
| 20260506000148 | 78 | 212 | 5.0 | 10.0 | 0.00 | 0.00 | 0.00 | 39 | 1006.8 |
| 20260505235836 | 78 | 217 | 5.0 | 15.0 | 0.00 | 0.00 | 0.00 | 39 | 1006.7 |
| 20260505235637 | 78 | 218 | 5.0 | 15.0 | 0.00 | 0.00 | 0.00 | 39 | 1006.7 |
| 20260505235406 | 79 | 191 | 7.0 | 15.0 | 0.00 | 0.00 | 0.00 | 38 | 1006.7 |
| 20260505235143 | 79 | 210 | 8.0 | 18.0 | 0.00 | 0.00 | 0.00 | 38 | 1006.7 |
| 20260505234854 | 79 | 201 | 6.0 | 18.0 | 0.00 | 0.00 | 0.00 | 38 | 1006.7 |
| 20260505234631 | 79 | 229 | 7.0 | 18.0 | 0.00 | 0.00 | 0.00 | 38 | 1006.7 |
| 20260505234342 | 79 | 200 | 8.0 | 18.0 | 0.00 | 0.00 | 0.00 | 38 | 1006.8 |
| 20260505234141 | 79 | 251 | 7.0 | 17.0 | 0.00 | 0.00 | 0.00 | 38 | 1006.7 |
| 20260505233850 | 79 | 208 | 8.0 | 17.0 | 0.00 | 0.00 | 0.00 | 38 | 1006.8 |
| 20260505233648 | 79 | 259 | 6.0 | 16.0 | 0.00 | 0.00 | 0.00 | 38 | 1006.6 |
| 20260505233340 | 79 | 216 | 6.0 | 15.0 | 0.00 | 0.00 | 0.00 | 38 | 1006.5 |
| 20260505233138 | 79 | 227 | 9.0 | 15.0 | 0.00 | 0.00 | 0.00 | 37 | 1006.6 |
| 20260505232849 | 79 | 226 | 8.0 | 15.0 | 0.00 | 0.00 | 0.00 | 37 | 1006.6 |
| 20260505232647 | 79 | 225 | 8.0 | 15.0 | 0.00 | 0.00 | 0.00 | 37 | 1006.5 |
| 20260505232337 | 79 | 216 | 7.0 | 15.0 | 0.00 | 0.00 | 0.00 | 37 | 1006.5 |
| 20260505232136 | 79 | 183 | 8.0 | 15.0 | 0.00 | 0.00 | 0.00 | 37 | 1006.6 |
| 20260505231846 | 79 | 215 | 7.0 | 14.0 | 0.00 | 0.00 | 0.00 | 37 | 1006.4 |
| 20260505231642 | 79 | 208 | 8.0 | 14.0 | 0.00 | 0.00 | 0.00 | 37 | 1006.4 |
| 20260505231352 | 79 | 200 | 6.0 | 15.0 | 0.00 | 0.00 | 0.00 | 37 | 1006.3 |
| 20260505231211 | 79 | 216 | 5.0 | 15.0 | 0.00 | 0.00 | 0.00 | 37 | 1006.3 |
| 20260505230842 | 79 | 229 | 6.0 | 15.0 | 0.00 | 0.00 | 0.00 | 36 | 1006.3 |
| 20260505230701 | 79 | 187 | 8.0 | 15.0 | 0.00 | 0.00 | 0.00 | 36 | 1006.3 |
| 20260505230408 | 80 | 231 | 9.0 | 16.0 | 0.00 | 0.00 | 0.00 | 36 | 1006.3 |
| 20260505230148 | 80 | 212 | 9.0 | 18.0 | 0.00 | 0.00 | 0.00 | 36 | 1006.2 |
| 20260505225834 | 80 | 228 | 8.0 | 18.0 | 0.00 | 0.00 | 0.00 | 36 | 1006.2 |
| 20260505225636 | 80 | 262 | 10.0 | 18.0 | 0.00 | 0.00 | 0.00 | 36 | 1006.2 |
| 20260505225402 | 80 | 203 | 8.0 | 15.0 | 0.00 | 0.00 | 0.00 | 35 | 1006.2 |
| 20260505225144 | 80 | 238 | 5.0 | 15.0 | 0.00 | 0.00 | 0.00 | 36 | 1006.1 |
| 20260505224851 | 80 | 212 | 8.0 | 15.0 | 0.00 | 0.00 | 0.00 | 35 | 1006.1 |
| 20260505224648 | 80 | 316 | 7.0 | 18.0 | 0.00 | 0.00 | 0.00 | 36 | 1006.1 |
| 20260505224337 | 80 | 235 | 10.0 | 19.0 | 0.00 | 0.00 | 0.00 | 35 | 1006.1 |
| 20260505224136 | 80 | 231 | 7.0 | 21.0 | 0.00 | 0.00 | 0.00 | 35 | 1006.0 |
| 20260505223846 | 80 | 219 | 9.0 | 21.0 | 0.00 | 0.00 | 0.00 | 35 | 1005.9 |
| 20260505223645 | 80 | 200 | 10.0 | 21.0 | 0.00 | 0.00 | 0.00 | 35 | 1006.0 |
| 20260505223336 | 81 | 175 | 12.0 | 21.0 | 0.00 | 0.00 | 0.00 | 34 | 1005.9 |
| 20260505223134 | 81 | 202 | 9.0 | 19.0 | 0.00 | 0.00 | 0.00 | 34 | 1005.9 |
| 20260505222844 | 81 | 228 | 6.0 | 21.0 | 0.00 | 0.00 | 0.00 | 34 | 1005.9 |
| 20260505222642 | 81 | 225 | 4.0 | 21.0 | 0.00 | 0.00 | 0.00 | 35 | 1005.9 |
| 20260505222333 | 81 | 210 | 9.0 | 21.0 | 0.00 | 0.00 | 0.00 | 34 | 1005.9 |
| 20260505222218 | 81 | 216 | 9.0 | 21.0 | 0.00 | 0.00 | 0.00 | 34 | 1005.9 |
| 20260505221907 | 81 | 193 | 8.0 | 18.0 | 0.00 | 0.00 | 0.00 | 34 | 1005.9 |
| 20260505221644 | 81 | 203 | 7.0 | 18.0 | 0.00 | 0.00 | 0.00 | 34 | 1005.9 |
| 20260505221333 | 82 | 232 | 9.0 | 15.0 | 0.00 | 0.00 | 0.00 | 34 | 1005.9 |
| 20260505221210 | 82 | 249 | 8.0 | 15.0 | 0.00 | 0.00 | 0.00 | 34 | 1005.9 |
| 20260505220840 | 82 | 253 | 9.0 | 16.0 | 0.00 | 0.00 | 0.00 | 34 | 1005.9 |
| 20260505220637 | 82 | 240 | 7.0 | 20.0 | 0.00 | 0.00 | 0.00 | 34 | 1005.8 |
| 20260505220344 | 82 | 246 | 8.0 | 20.0 | 0.00 | 0.00 | 0.00 | 33 | 1005.8 |
| 20260505220207 | 82 | 225 | 11.0 | 20.0 | 0.00 | 0.00 | 0.00 | 33 | 1005.7 |
| 20260505215832 | 82 | 200 | 10.0 | 20.0 | 0.00 | 0.00 | 0.00 | 33 | 1005.7 |
| 20260505215635 | 82 | 227 | 9.0 | 19.0 | 0.00 | 0.00 | 0.00 | 32 | 1005.8 |
| 20260505215341 | 82 | 243 | 5.0 | 19.0 | 0.00 | 0.00 | 0.00 | 34 | 1005.8 |
| 20260505215143 | 82 | 212 | 11.0 | 21.0 | 0.00 | 0.00 | 0.00 | 32 | 1005.8 |
| 20260505214850 | 82 | 220 | 11.0 | 21.0 | 0.00 | 0.00 | 0.00 | 32 | 1005.8 |
| 20260505214653 | 81 | 213 | 9.0 | 21.0 | 0.00 | 0.00 | 0.00 | 33 | 1005.7 |
| 20260505214338 | 81 | 223 | 5.0 | 20.0 | 0.00 | 0.00 | 0.00 | 33 | 1005.7 |
| 20260505214158 | 81 | 260 | 9.0 | 23.0 | 0.00 | 0.00 | 0.00 | 32 | 1005.7 |
| 20260505213846 | 81 | 218 | 9.0 | 23.0 | 0.00 | 0.00 | 0.00 | 33 | 1005.7 |
| 20260505213644 | 81 | 212 | 6.0 | 23.0 | 0.00 | 0.00 | 0.00 | 33 | 1005.5 |
| 20260505213334 | 81 | 229 | 7.0 | 26.0 | 0.00 | 0.00 | 0.00 | 33 | 1005.6 |
| 20260505213133 | 81 | 196 | 9.0 | 26.0 | 0.00 | 0.00 | 0.00 | 33 | 1005.6 |
| 20260505212911 | 81 | 221 | 9.0 | 30.0 | 0.00 | 0.00 | 0.00 | 34 | 1005.5 |
| 20260505212647 | 81 | 244 | 13.0 | 30.0 | 0.00 | 0.00 | 0.00 | 33 | 1005.5 |
| 20260505212336 | 81 | 231 | 15.0 | 30.0 | 0.00 | 0.00 | 0.00 | 32 | 1005.4 |
| 20260505212157 | 81 | 211 | 14.0 | 21.0 | 0.00 | 0.00 | 0.00 | 34 | 1005.2 |
| 20260505211846 | 81 | 181 | 12.0 | 21.0 | 0.00 | 0.00 | 0.00 | 35 | 1005.2 |
| 20260505211645 | 82 | 186 | 12.0 | 21.0 | 0.00 | 0.00 | 0.00 | 34 | 1005.2 |
| 20260505211334 | 82 | 252 | 11.0 | 18.0 | 0.00 | 0.00 | 0.00 | 35 | 1005.2 |
| 20260505211132 | 82 | 261 | 10.0 | 21.0 | 0.00 | 0.00 | 0.00 | 34 | 1005.4 |
| 20260505210843 | 82 | 266 | 13.0 | 27.0 | 0.00 | 0.00 | 0.00 | 34 | 1005.3 |
| 20260505210641 | 82 | 216 | 9.0 | 27.0 | 0.00 | 0.00 | 0.00 | 35 | 1005.3 |
| 20260505210333 | 82 | 216 | 12.0 | 27.0 | 0.00 | 0.00 | 0.00 | 35 | 1005.3 |
| 20260505210150 | 82 | 257 | 15.0 | 27.0 | 0.00 | 0.00 | 0.00 | 35 | 1005.3 |
| 20260505205839 | 82 | 214 | 12.0 | 25.0 | 0.00 | 0.00 | 0.00 | 34 | 1005.4 |
| 20260505205637 | 82 | 225 | 12.0 | 25.0 | 0.00 | 0.00 | 0.00 | 34 | 1005.3 |
| 20260505205404 | 82 | 220 | 9.0 | 25.0 | 0.00 | 0.00 | 0.00 | 35 | 1005.3 |
| 20260505205145 | 82 | 208 | 16.0 | 25.0 | 0.00 | 0.00 | 0.00 | 34 | 1005.3 |
| 20260505204831 | 82 | 145 | 12.0 | 25.0 | 0.00 | 0.00 | 0.00 | 35 | 1005.3 |
| 20260505204634 | 82 | 233 | 10.0 | 20.0 | 0.00 | 0.00 | 0.00 | 37 | 1005.4 |
| 20260505204342 | 82 | 234 | 12.0 | 20.0 | 0.00 | 0.00 | 0.00 | 36 | 1005.3 |
| 20260505204144 | 82 | 214 | 11.0 | 19.0 | 0.00 | 0.00 | 0.00 | 36 | 1005.3 |
| 20260505203832 | 82 | 202 | 7.0 | 21.0 | 0.00 | 0.00 | 0.00 | 37 | 1005.4 |
| 20260505203634 | 82 | 234 | 6.0 | 23.0 | 0.00 | 0.00 | 0.00 | 37 | 1005.5 |
| 20260505203342 | 82 | 198 | 12.0 | 25.0 | 0.00 | 0.00 | 0.00 | 36 | 1005.6 |
| 20260505203144 | 81 | 246 | 12.0 | 25.0 | 0.00 | 0.00 | 0.00 | 36 | 1005.5 |
| 20260505202849 | 82 | 225 | 13.0 | 25.0 | 0.00 | 0.00 | 0.00 | 36 | 1005.5 |
| 20260505202653 | 83 | 216 | 12.0 | 25.0 | 0.00 | 0.00 | 0.00 | 36 | 1005.4 |
| 20260505202339 | 83 | 250 | 10.0 | 31.0 | 0.00 | 0.00 | 0.00 | 36 | 1005.6 |
| 20260505202135 | 82 | 213 | 11.0 | 31.0 | 0.00 | 0.00 | 0.00 | 36 | 1005.5 |
| 20260505201845 | 82 | 194 | 15.0 | 31.0 | 0.00 | 0.00 | 0.00 | 35 | 1005.5 |
| 20260505201643 | 83 | 230 | 13.0 | 29.0 | 0.00 | 0.00 | 0.00 | 37 | 1005.6 |
| 20260505201413 | 82 | 189 | 8.0 | 23.0 | 0.00 | 0.00 | 0.00 | 37 | 1005.5 |
| 20260505201210 | 82 | 250 | 15.0 | 23.0 | 0.00 | 0.00 | 0.00 | 36 | 1005.7 |
| 20260505200840 | 83 | 184 | 10.0 | 23.0 | 0.00 | 0.00 | 0.00 | 37 | 1005.5 |
| 20260505200638 | 83 | 211 | 11.0 | 23.0 | 0.00 | 0.00 | 0.00 | 36 | 1005.6 |
| 20260505200350 | 83 | 149 | 9.0 | 23.0 | 0.00 | 0.00 | 0.00 | 36 | 1005.5 |
| 20260505200207 | 83 | 207 | 11.0 | 23.0 | 0.00 | 0.00 | 0.00 | 37 | 1005.5 |
| 20260505195838 | 83 | 268 | 11.0 | 23.0 | 0.00 | 0.00 | 0.00 | 36 | 1005.5 |
| 20260505195636 | 83 | 212 | 12.0 | 24.0 | 0.00 | 0.00 | 0.00 | 34 | 1005.5 |
| 20260505195347 | 84 | 235 | 8.0 | 24.0 | 0.00 | 0.00 | 0.00 | 36 | 1005.5 |
| 20260505195142 | 83 | 209 | 8.0 | 24.0 | 0.00 | 0.00 | 0.00 | 35 | 1005.6 |
| 20260505194833 | 83 | 221 | 11.0 | 23.0 | 0.00 | 0.00 | 0.00 | 35 | 1005.6 |
| 20260505194651 | 83 | 276 | 10.0 | 22.0 | 0.00 | 0.00 | 0.00 | 35 | 1005.5 |
| 20260505194338 | 83 | 201 | 13.0 | 22.0 | 0.00 | 0.00 | 0.00 | 36 | 1005.6 |
| 20260505194139 | 83 | 227 | 12.0 | 23.0 | 0.00 | 0.00 | 0.00 | 36 | 1005.6 |
| 20260505193906 | 83 | 257 | 11.0 | 19.0 | 0.00 | 0.00 | 0.00 | 35 | 1005.7 |
| 20260505193646 | 83 | 226 | 7.0 | 22.0 | 0.00 | 0.00 | 0.00 | 36 | 1005.7 |
| 20260505193354 | 83 | 204 | 11.0 | 22.0 | 0.00 | 0.00 | 0.00 | 37 | 1005.7 |
| 20260505193156 | 82 | 189 | 10.0 | 22.0 | 0.00 | 0.00 | 0.00 | 38 | 1005.8 |
| 20260505192842 | 82 | 219 | 14.0 | 22.0 | 0.00 | 0.00 | 0.00 | 36 | 1005.8 |
| 20260505192639 | 82 | 230 | 14.0 | 22.0 | 0.00 | 0.00 | 0.00 | 37 | 1005.8 |
| 20260505192350 | 82 | 210 | 12.0 | 20.0 | 0.00 | 0.00 | 0.00 | 37 | 1005.8 |
| 20260505192148 | 82 | 187 | 11.0 | 21.0 | 0.00 | 0.00 | 0.00 | 37 | 1005.9 |
| 20260505191838 | 82 | 237 | 7.0 | 23.0 | 0.00 | 0.00 | 0.00 | 38 | 1006.0 |
| 20260505191635 | 82 | 206 | 10.0 | 23.0 | 0.00 | 0.00 | 0.00 | 37 | 1006.0 |
| 20260505191343 | 82 | 221 | 14.0 | 28.0 | 0.00 | 0.00 | 0.00 | 37 | 1005.9 |
| 20260505191141 | 82 | 202 | 14.0 | 28.0 | 0.00 | 0.00 | 0.00 | 37 | 1006.0 |
| 20260505190911 | 82 | 220 | 14.0 | 28.0 | 0.00 | 0.00 | 0.00 | 37 | 1006.1 |
| 20260505190709 | 82 | 173 | 16.0 | 28.0 | 0.00 | 0.00 | 0.00 | 37 | 1006.1 |
| 20260505190339 | 82 | 216 | 14.0 | 25.0 | 0.00 | 0.00 | 0.00 | 37 | 1006.1 |
| 20260505190135 | 82 | 243 | 14.0 | 30.0 | 0.00 | 0.00 | 0.00 | 38 | 1006.1 |
| 20260505185845 | 83 | 202 | 13.0 | 30.0 | 0.00 | 0.00 | 0.00 | 37 | 1006.2 |
| 20260505185644 | 83 | 211 | 12.0 | 30.0 | 0.00 | 0.00 | 0.00 | 38 | 1006.1 |
| 20260505185333 | 83 | 205 | 11.0 | 18.0 | 0.00 | 0.00 | 0.00 | 37 | 1006.1 |
| 20260505185151 | 83 | 165 | 8.0 | 18.0 | 0.00 | 0.00 | 0.00 | 39 | 1006.1 |
| 20260505184842 | 83 | 186 | 7.0 | 23.0 | 0.00 | 0.00 | 0.00 | 40 | 1006.1 |
| 20260505184641 | 83 | 233 | 10.0 | 23.0 | 0.00 | 0.00 | 0.00 | 39 | 1006.2 |
| 20260505184333 | 83 | 204 | 12.0 | 23.0 | 0.00 | 0.00 | 0.00 | 40 | 1006.4 |
| 20260505184150 | 83 | 206 | 6.0 | 16.0 | 0.00 | 0.00 | 0.00 | 43 | 1006.3 |
| 20260505183835 | 83 | 220 | 8.0 | 21.0 | 0.00 | 0.00 | 0.00 | 41 | 1006.5 |
| 20260505183637 | 82 | 176 | 9.0 | 21.0 | 0.00 | 0.00 | 0.00 | 41 | 1006.6 |
| 20260505183344 | 82 | 193 | 11.0 | 22.0 | 0.00 | 0.00 | 0.00 | 39 | 1006.6 |
| 20260505183146 | 82 | 191 | 13.0 | 22.0 | 0.00 | 0.00 | 0.00 | 39 | 1006.6 |
| 20260505182833 | 82 | 181 | 10.0 | 22.0 | 0.00 | 0.00 | 0.00 | 40 | 1006.8 |
| 20260505182635 | 82 | 279 | 14.0 | 28.0 | 0.00 | 0.00 | 0.00 | 39 | 1006.7 |
| 20260505182341 | 82 | 199 | 12.0 | 28.0 | 0.00 | 0.00 | 0.00 | 39 | 1006.7 |
| 20260505182144 | 82 | 185 | 11.0 | 28.0 | 0.00 | 0.00 | 0.00 | 41 | 1006.7 |
| 20260505181851 | 82 | 175 | 12.0 | 29.0 | 0.00 | 0.00 | 0.00 | 41 | 1006.7 |
| 20260505181633 | 82 | 241 | 11.0 | 20.0 | 0.00 | 0.00 | 0.00 | 41 | 1006.6 |
| 20260505181338 | 83 | 214 | 8.0 | 20.0 | 0.00 | 0.00 | 0.00 | 42 | 1006.6 |
| 20260505181141 | 82 | 212 | 9.0 | 20.0 | 0.00 | 0.00 | 0.00 | 44 | 1006.7 |
| 20260505180847 | 82 | 212 | 11.0 | 20.0 | 0.00 | 0.00 | 0.00 | 42 | 1006.8 |
| 20260505180649 | 82 | 229 | 8.0 | 23.0 | 0.00 | 0.00 | 0.00 | 42 | 1006.7 |
| 20260505180335 | 81 | 251 | 8.0 | 23.0 | 0.00 | 0.00 | 0.00 | 43 | 1006.8 |
| 20260505180136 | 81 | 148 | 12.0 | 25.0 | 0.00 | 0.00 | 0.00 | 43 | 1006.8 |
| 20260505175845 | 81 | 217 | 12.0 | 25.0 | 0.00 | 0.00 | 0.00 | 43 | 1006.9 |
| 20260505175642 | 81 | 212 | 9.0 | 25.0 | 0.00 | 0.00 | 0.00 | 45 | 1006.9 |
| 20260505175333 | 81 | 202 | 13.0 | 25.0 | 0.00 | 0.00 | 0.00 | 45 | 1006.8 |
| 20260505175150 | 81 | 208 | 6.0 | 21.0 | 0.00 | 0.00 | 0.00 | 48 | 1006.8 |
| 20260505174839 | 81 | 251 | 10.0 | 19.0 | 0.00 | 0.00 | 0.00 | 44 | 1006.9 |
| 20260505174657 | 81 | 217 | 10.0 | 19.0 | 0.00 | 0.00 | 0.00 | 44 | 1006.9 |
| 20260505174347 | 81 | 237 | 9.0 | 19.0 | 0.00 | 0.00 | 0.00 | 44 | 1006.9 |
| 20260505174145 | 81 | 208 | 11.0 | 19.0 | 0.00 | 0.00 | 0.00 | 45 | 1006.9 |
| 20260505173836 | 81 | 194 | 9.0 | 19.0 | 0.00 | 0.00 | 0.00 | 47 | 1006.9 |
| 20260505173634 | 81 | 181 | 9.0 | 19.0 | 0.00 | 0.00 | 0.00 | 45 | 1007.0 |
| 20260505173345 | 81 | 212 | 11.0 | 20.0 | 0.00 | 0.00 | 0.00 | 45 | 1007.0 |
| 20260505173204 | 81 | 235 | 9.0 | 20.0 | 0.00 | 0.00 | 0.00 | 47 | 1007.0 |
| 20260505172833 | 81 | 228 | 11.0 | 20.0 | 0.00 | 0.00 | 0.00 | 45 | 1007.0 |
| 20260505172650 | 81 | 182 | 9.0 | 20.0 | 0.00 | 0.00 | 0.00 | 46 | 1007.1 |
| 20260505172339 | 80 | 188 | 9.0 | 20.0 | 0.00 | 0.00 | 0.00 | 46 | 1007.2 |
| 20260505172138 | 80 | 232 | 9.0 | 20.0 | 0.00 | 0.00 | 0.00 | 46 | 1007.2 |
| 20260505171848 | 80 | 239 | 11.0 | 20.0 | 0.00 | 0.00 | 0.00 | 45 | 1007.3 |
| 20260505171707 | 80 | 214 | 11.0 | 17.0 | 0.00 | 0.00 | 0.00 | 46 | 1007.3 |
| 20260505171332 | 80 | 227 | 9.0 | 18.0 | 0.00 | 0.00 | 0.00 | 46 | 1007.4 |
| 20260505171135 | 80 | 199 | 8.0 | 18.0 | 0.00 | 0.00 | 0.00 | 46 | 1007.4 |
| 20260505170842 | 80 | 216 | 9.0 | 18.0 | 0.00 | 0.00 | 0.00 | 46 | 1007.4 |
| 20260505170642 | 80 | 199 | 10.0 | 18.0 | 0.00 | 0.00 | 0.00 | 47 | 1007.5 |
| 20260505170409 | 79 | 229 | 12.0 | 19.0 | 0.00 | 0.00 | 0.00 | 46 | 1007.5 |
| 20260505170149 | 79 | 218 | 10.0 | 17.0 | 0.00 | 0.00 | 0.00 | 47 | 1007.5 |
| 20260505165836 | 79 | 233 | 12.0 | 17.0 | 0.00 | 0.00 | 0.00 | 47 | 1007.6 |
| 20260505165637 | 79 | 198 | 10.0 | 20.0 | 0.00 | 0.00 | 0.00 | 47 | 1007.6 |
| 20260505165405 | 79 | 176 | 8.0 | 20.0 | 0.00 | 0.00 | 0.00 | 47 | 1007.7 |
| 20260505165141 | 79 | 254 | 10.0 | 20.0 | 0.00 | 0.00 | 0.00 | 48 | 1007.8 |
| 20260505164850 | 79 | 207 | 13.0 | 20.0 | 0.00 | 0.00 | 0.00 | 47 | 1007.8 |
| 20260505164710 | 79 | 202 | 9.0 | 15.0 | 0.00 | 0.00 | 0.00 | 50 | 1007.7 |
| 20260505164339 | 79 | 212 | 10.0 | 15.0 | 0.00 | 0.00 | 0.00 | 49 | 1007.8 |
| 20260505164137 | 79 | 208 | 10.0 | 15.0 | 0.00 | 0.00 | 0.00 | 48 | 1007.8 |
| 20260505163847 | 79 | 225 | 8.0 | 15.0 | 0.00 | 0.00 | 0.00 | 48 | 1007.8 |
| 20260505163646 | 79 | 239 | 7.0 | 15.0 | 0.00 | 0.00 | 0.00 | 50 | 1007.8 |
| 20260505163336 | 79 | 239 | 7.0 | 18.0 | 0.00 | 0.00 | 0.00 | 49 | 1007.8 |
| 20260505163134 | 79 | 235 | 10.0 | 18.0 | 0.00 | 0.00 | 0.00 | 48 | 1007.9 |
| 20260505162844 | 79 | 225 | 9.0 | 18.0 | 0.00 | 0.00 | 0.00 | 49 | 1007.9 |
| 20260505162641 | 79 | 197 | 11.0 | 18.0 | 0.00 | 0.00 | 0.00 | 49 | 1007.9 |
| 20260505162332 | 79 | 243 | 5.0 | 13.0 | 0.00 | 0.00 | 0.00 | 53 | 1007.9 |
| 20260505162209 | 78 | 185 | 6.0 | 17.0 | 0.00 | 0.00 | 0.00 | 50 | 1007.9 |
| 20260505161840 | 78 | 237 | 7.0 | 17.0 | 0.00 | 0.00 | 0.00 | 51 | 1007.9 |
| 20260505161657 | 78 | 225 | 7.0 | 17.0 | 0.00 | 0.00 | 0.00 | 50 | 1008.0 |
| 20260505161339 | 78 | 190 | 8.0 | 14.0 | 0.00 | 0.00 | 0.00 | 50 | 1008.0 |
| 20260505161143 | 78 | 229 | 7.0 | 14.0 | 0.00 | 0.00 | 0.00 | 49 | 1008.1 |
| 20260505160849 | 78 | 217 | 5.0 | 14.0 | 0.00 | 0.00 | 0.00 | 53 | 1008.1 |
| 20260505160631 | 78 | 162 | 8.0 | 16.0 | 0.00 | 0.00 | 0.00 | 52 | 1008.2 |
| 20260505160337 | 77 | 194 | 7.0 | 12.0 | 0.00 | 0.00 | 0.00 | 51 | 1008.1 |
| 20260505160200 | 77 | 178 | 7.0 | 14.0 | 0.00 | 0.00 | 0.00 | 50 | 1008.1 |
| 20260505153350 | 76 | 173 | 8.0 | 14.0 | 0.00 | 0.00 | 0.00 | 54 | 1008.6 |
| 20260505153210 | 76 | 208 | 7.0 | 12.0 | 0.00 | 0.00 | 0.00 | 56 | 1008.8 |
| 20260505152840 | 75 | 193 | 8.0 | 12.0 | 0.00 | 0.00 | 0.00 | 55 | 1008.8 |
| 20260505152639 | 75 | 218 | 7.0 | 12.0 | 0.00 | 0.00 | 0.00 | 55 | 1008.7 |
| 20260505152351 | 75 | 133 | 7.0 | 14.0 | 0.00 | 0.00 | 0.00 | 56 | 1008.7 |
| 20260505152209 | 75 | 185 | 7.0 | 14.0 | 0.00 | 0.00 | 0.00 | 57 | 1008.8 |
| 20260505151839 | 75 | 223 | 5.0 | 14.0 | 0.00 | 0.00 | 0.00 | 57 | 1008.8 |
| 20260505151638 | 75 | 193 | 9.0 | 14.0 | 0.00 | 0.00 | 0.00 | 56 | 1008.8 |
| 20260505151342 | 74 | 186 | 6.0 | 11.0 | 0.00 | 0.00 | 0.00 | 57 | 1008.7 |
| 20260505151143 | 74 | 204 | 5.0 | 11.0 | 0.00 | 0.00 | 0.00 | 56 | 1008.8 |
| 20260505150910 | 74 | 214 | 5.0 | 11.0 | 0.00 | 0.00 | 0.00 | 57 | 1008.8 |
| 20260505150634 | 74 | 226 | 6.0 | 12.0 | 0.00 | 0.00 | 0.00 | 57 | 1008.8 |
| 20260505150340 | 74 | 187 | 3.0 | 12.0 | 0.00 | 0.00 | 0.00 | 57 | 1008.8 |
| 20260505150141 | 74 | 206 | 8.0 | 12.0 | 0.00 | 0.00 | 0.00 | 56 | 1008.8 |
| 20260505140645 | 71 | 231 | 7.0 | 11.0 | 0.00 | 0.00 | 0.00 | 60 | 1009.2 |
| 20260505140334 | 71 | 143 | 6.0 | 11.0 | 0.00 | 0.00 | 0.00 | 60 | 1009.2 |
| 20260505140132 | 70 | 154 | 6.0 | 11.0 | 0.00 | 0.00 | 0.00 | 61 | 1009.2 |
| 20260505130149 | 65 | 196 | 4.0 | 10.0 | 0.00 | 0.00 | 0.00 | 72 | 1009.4 |
| 20260505124837 | 64 | 198 | 5.0 | 12.0 | 0.00 | 0.00 | 0.00 | 73 | 1009.0 |
| 20260505124658 | 63 | 181 | 7.0 | 12.0 | 0.00 | 0.00 | 0.00 | 74 | 1009.0 |
| 20260505124347 | 63 | 178 | 5.0 | 10.0 | 0.00 | 0.00 | 0.00 | 75 | 1008.9 |
| 20260505124145 | 63 | 220 | 4.0 | 10.0 | 0.00 | 0.00 | 0.00 | 76 | 1008.9 |
| 20260505123856 | 62 | 210 | 5.0 | 9.0 | 0.00 | 0.00 | 0.00 | 76 | 1008.9 |
| 20260505123634 | 62 | 203 | 5.0 | 9.0 | 0.00 | 0.00 | 0.00 | 77 | 1008.9 |
| 20260505123340 | 62 | 216 | 6.0 | 10.0 | 0.00 | 0.00 | 0.00 | 77 | 1009.0 |
| 20260505123138 | 61 | 218 | 4.0 | 10.0 | 0.00 | 0.00 | 0.00 | 78 | 1009.0 |
| 20260505122903 | 61 | 198 | 5.0 | 10.0 | 0.00 | 0.00 | 0.00 | 79 | 1009.0 |
| 20260505122643 | 61 | 207 | 6.0 | 10.0 | 0.00 | 0.00 | 0.00 | 79 | 1009.0 |
| 20260505122411 | 60 | 198 | 5.0 | 10.0 | 0.00 | 0.00 | 0.00 | 80 | 1009.0 |
| 20260505122149 | 60 | 222 | 6.0 | 10.0 | 0.00 | 0.00 | 0.00 | 80 | 1009.0 |
| 20260505121837 | 60 | 226 | 6.0 | 9.0 | 0.00 | 0.00 | 0.00 | 81 | 1009.1 |
| 20260505121638 | 59 | 208 | 4.0 | 8.0 | 0.00 | 0.00 | 0.00 | 82 | 1009.1 |
| 20260505121343 | 59 | 162 | 3.0 | 8.0 | 0.00 | 0.00 | 0.00 | 82 | 1009.2 |
| 20260505121141 | 59 | 213 | 4.0 | 8.0 | 0.00 | 0.00 | 0.00 | 83 | 1009.2 |
| 20260505120850 | 58 | 177 | 2.0 | 5.0 | 0.00 | 0.00 | 0.00 | 83 | 1009.2 |
| 20260505120646 | 58 | 154 | 2.0 | 5.0 | 0.00 | 0.00 | 0.00 | 84 | 1009.4 |
| 20260505120337 | 57 | 152 | 3.0 | 5.0 | 0.00 | 0.00 | 0.00 | 84 | 1009.4 |
| 20260505120157 | 57 | 187 | 2.0 | 4.0 | 0.00 | 0.00 | 0.00 | 85 | 1009.5 |
| 20260505115847 | 57 | 155 | 1.0 | 5.0 | 0.00 | 0.00 | 0.00 | 85 | 1009.5 |
| 20260505115645 | 56 | 156 | 3.0 | 5.0 | 0.00 | 0.00 | 0.00 | 86 | 1009.5 |
| 20260505115355 | 56 | 173 | 2.0 | 4.0 | 0.00 | 0.00 | 0.00 | 87 | 1009.4 |
| 20260505115133 | 55 | 175 | 1.0 | 4.0 | 0.00 | 0.00 | 0.00 | 87 | 1009.4 |
| 20260505114844 | 55 | 176 | 2.0 | 4.0 | 0.00 | 0.00 | 0.00 | 88 | 1009.4 |
| 20260505114644 | 54 | 216 | 2.0 | 3.0 | 0.00 | 0.00 | 0.00 | 88 | 1009.4 |
| 20260505114333 | 54 | 218 | 2.0 | 3.0 | 0.00 | 0.00 | 0.00 | 89 | 1009.4 |
| 20260505114133 | 54 | 218 | 2.0 | 3.0 | 0.00 | 0.00 | 0.00 | 89 | 1009.4 |
| 20260505113844 | 53 | 227 | 2.0 | 3.0 | 0.00 | 0.00 | 0.00 | 90 | 1009.3 |
| 20260505113641 | 53 | 227 | 1.0 | 3.0 | 0.00 | 0.00 | 0.00 | 90 | 1009.5 |
| 20260505113332 | 53 | 227 | 2.0 | 4.0 | 0.00 | 0.00 | 0.00 | 90 | 1009.5 |
| 20260505113150 | 53 | 227 | 1.0 | 4.0 | 0.00 | 0.00 | 0.00 | 90 | 1009.4 |
| 20260505112841 | 52 | 227 | 1.0 | 5.0 | 0.00 | 0.00 | 0.00 | 90 | 1009.4 |
| 20260505112640 | 52 | 227 | 2.0 | 5.0 | 0.00 | 0.00 | 0.00 | 90 | 1009.3 |
| 20260505112407 | 52 | 227 | 3.0 | 5.0 | 0.00 | 0.00 | 0.00 | 91 | 1009.3 |
| 20260505112208 | 52 | 223 | 2.0 | 4.0 | 0.00 | 0.00 | 0.00 | 91 | 1009.1 |
| 20260505111833 | 52 | 222 | 2.0 | 3.0 | 0.00 | 0.00 | 0.00 | 91 | 1009.1 |
| 20260505111635 | 52 | 222 | 2.0 | 3.0 | 0.00 | 0.00 | 0.00 | 92 | 1009.1 |
| 20260505111341 | 51 | 222 | 1.0 | 2.0 | 0.00 | 0.00 | 0.00 | 92 | 1008.9 |
| 20260505111205 | 51 | 222 | 0.0 | 3.0 | 0.00 | 0.00 | 0.00 | 92 | 1008.9 |
| 20260505110849 | 51 | 222 | 0.0 | 3.0 | 0.00 | 0.00 | 0.00 | 92 | 1008.9 |
| 20260505110647 | 51 | 222 | 1.0 | 3.0 | 0.00 | 0.00 | 0.00 | 92 | 1009.0 |
| 20260505110357 | 51 | 221 | 2.0 | 3.0 | 0.00 | 0.00 | 0.00 | 92 | 1009.0 |
| 20260505110215 | 51 | 223 | 2.0 | 3.0 | 0.00 | 0.00 | 0.00 | 92 | 1009.0 |
| 20260505102142 | 47 | 223 | 0.0 | 0.0 | 0.00 | 0.00 | 0.00 | 92 | 1009.3 |
| 20260505101848 | 47 | 223 | 0.0 | 0.0 | 0.00 | 0.00 | 0.00 | 92 | 1009.3 |
| 20260505101649 | 47 | 223 | 0.0 | 0.0 | 0.00 | 0.00 | 0.00 | 92 | 1009.2 |
| 20260505101333 | 47 | 223 | 0.0 | 0.0 | 0.00 | 0.00 | 0.00 | 92 | 1009.1 |
| 20260505101135 | 47 | 223 | 0.0 | 0.0 | 0.00 | 0.00 | 0.00 | 92 | 1009.1 |
| 20260505100841 | 47 | 223 | 0.0 | 0.0 | 0.00 | 0.00 | 0.00 | 92 | 1009.1 |
| 20260505100643 | 47 | 223 | 0.0 | 0.0 | 0.00 | 0.00 | 0.00 | 92 | 1009.1 |
| 20260505100350 | 47 | 223 | 0.0 | 0.0 | 0.00 | 0.00 | 0.00 | 92 | 1008.9 |
| 20260505100132 | 47 | 223 | 0.0 | 0.0 | 0.00 | 0.00 | 0.00 | 92 | 1008.8 |
| 20260505095838 | 47 | 223 | 0.0 | 0.0 | 0.00 | 0.00 | 0.00 | 92 | 1008.8 |
| 20260505095640 | 47 | 223 | 0.0 | 0.0 | 0.00 | 0.00 | 0.00 | 92 | 1008.8 |
| 20260505095348 | 47 | 223 | 0.0 | 0.0 | 0.00 | 0.00 | 0.00 | 92 | 1008.8 |
| 20260505095150 | 47 | 223 | 0.0 | 0.0 | 0.00 | 0.00 | 0.00 | 92 | 1008.8 |
| 20260505094836 | 47 | 223 | 0.0 | 0.0 | 0.00 | 0.00 | 0.00 | 91 | 1008.8 |
| 20260505094639 | 47 | 223 | 0.0 | 0.0 | 0.00 | 0.00 | 0.00 | 91 | 1008.9 |
| 20260505094346 | 47 | 223 | 0.0 | 0.0 | 0.00 | 0.00 | 0.00 | 91 | 1008.9 |
| 20260505094145 | 46 | 223 | 0.0 | 0.0 | 0.00 | 0.00 | 0.00 | 91 | 1008.9 |
| 20260505093835 | 46 | 223 | 0.0 | 0.0 | 0.00 | 0.00 | 0.00 | 91 | 1008.8 |
| 20260505093635 | 46 | 223 | 0.0 | 0.0 | 0.00 | 0.00 | 0.00 | 91 | 1008.8 |
| 20260505093345 | 46 | 223 | 0.0 | 0.0 | 0.00 | 0.00 | 0.00 | 91 | 1008.9 |
| 20260505093144 | 46 | 223 | 0.0 | 0.0 | 0.00 | 0.00 | 0.00 | 91 | 1008.7 |
| 20260505092835 | 46 | 223 | 0.0 | 0.0 | 0.00 | 0.00 | 0.00 | 91 | 1008.7 |
| 20260505092634 | 47 | 223 | 0.0 | 0.0 | 0.00 | 0.00 | 0.00 | 91 | 1008.7 |
| 20260505092345 | 47 | 223 | 0.0 | 0.0 | 0.00 | 0.00 | 0.00 | 91 | 1008.7 |
| 20260505092143 | 47 | 223 | 0.0 | 0.0 | 0.00 | 0.00 | 0.00 | 91 | 1008.6 |
| 20260505091835 | 47 | 223 | 0.0 | 0.0 | 0.00 | 0.00 | 0.00 | 91 | 1008.7 |
| 20260505091654 | 47 | 223 | 0.0 | 0.0 | 0.00 | 0.00 | 0.00 | 91 | 1008.6 |
| 20260505091403 | 47 | 223 | 0.0 | 0.0 | 0.00 | 0.00 | 0.00 | 91 | 1008.5 |
| 20260505091139 | 47 | 223 | 0.0 | 0.0 | 0.00 | 0.00 | 0.00 | 90 | 1008.5 |
| 20260505090850 | 47 | 223 | 0.0 | 0.0 | 0.00 | 0.00 | 0.00 | 90 | 1008.5 |
| 20260505090648 | 47 | 223 | 0.0 | 0.0 | 0.00 | 0.00 | 0.00 | 90 | 1008.4 |
| 20260505090339 | 47 | 223 | 0.0 | 0.0 | 0.00 | 0.00 | 0.00 | 90 | 1008.4 |
| 20260505090137 | 47 | 223 | 0.0 | 0.0 | 0.00 | 0.00 | 0.00 | 90 | 1008.4 |
| 20260505085846 | 47 | 223 | 0.0 | 0.0 | 0.00 | 0.00 | 0.00 | 90 | 1008.4 |
| 20260505085644 | 47 | 223 | 0.0 | 0.0 | 0.00 | 0.00 | 0.00 | 90 | 1008.4 |
| 20260505085334 | 47 | 223 | 0.0 | 0.0 | 0.00 | 0.00 | 0.00 | 90 | 1008.4 |
| 20260505085154 | 47 | 223 | 0.0 | 0.0 | 0.00 | 0.00 | 0.00 | 90 | 1008.3 |
| 20260505084838 | 47 | 223 | 0.0 | 0.0 | 0.00 | 0.00 | 0.00 | 90 | 1008.3 |
| 20260505084640 | 47 | 223 | 0.0 | 0.0 | 0.00 | 0.00 | 0.00 | 90 | 1008.3 |
| 20260505084347 | 47 | 223 | 0.0 | 0.0 | 0.00 | 0.00 | 0.00 | 90 | 1008.4 |
| 20260505084148 | 47 | 223 | 0.0 | 0.0 | 0.00 | 0.00 | 0.00 | 90 | 1008.4 |
| 20260505083856 | 47 | 223 | 0.0 | 0.0 | 0.00 | 0.00 | 0.00 | 90 | 1008.5 |
| 20260505083637 | 47 | 223 | 0.0 | 0.0 | 0.00 | 0.00 | 0.00 | 90 | 1008.4 |
| 20260505083343 | 47 | 223 | 0.0 | 0.0 | 0.00 | 0.00 | 0.00 | 90 | 1008.5 |
| 20260505083144 | 47 | 223 | 0.0 | 0.0 | 0.00 | 0.00 | 0.00 | 89 | 1008.4 |
| 20260505082831 | 47 | 223 | 0.0 | 0.0 | 0.00 | 0.00 | 0.00 | 89 | 1008.4 |
| 20260505082633 | 47 | 223 | 0.0 | 0.0 | 0.00 | 0.00 | 0.00 | 89 | 1008.4 |
| 20260505082341 | 47 | 223 | 0.0 | 0.0 | 0.00 | 0.00 | 0.00 | 89 | 1008.5 |
| 20260505082138 | 47 | 223 | 0.0 | 0.0 | 0.00 | 0.00 | 0.00 | 89 | 1008.5 |
| 20260505081848 | 47 | 223 | 0.0 | 0.0 | 0.00 | 0.00 | 0.00 | 89 | 1008.5 |
| 20260505081646 | 47 | 223 | 0.0 | 0.0 | 0.00 | 0.00 | 0.00 | 89 | 1008.4 |
| 20260505081355 | 47 | 223 | 0.0 | 0.0 | 0.00 | 0.00 | 0.00 | 89 | 1008.5 |
| 20260505081133 | 47 | 223 | 0.0 | 0.0 | 0.00 | 0.00 | 0.00 | 89 | 1008.4 |
| 20260505080844 | 47 | 223 | 0.0 | 0.0 | 0.00 | 0.00 | 0.00 | 89 | 1008.5 |
| 20260505080643 | 47 | 223 | 0.0 | 0.0 | 0.00 | 0.00 | 0.00 | 89 | 1008.5 |
| 20260505080353 | 47 | 223 | 0.0 | 0.0 | 0.00 | 0.00 | 0.00 | 89 | 1008.5 |
| 20260505080210 | 47 | 223 | 0.0 | 0.0 | 0.00 | 0.00 | 0.00 | 89 | 1008.5 |
| 20260505075839 | 47 | 223 | 0.0 | 0.0 | 0.00 | 0.00 | 0.00 | 89 | 1008.5 |
| 20260505075657 | 47 | 223 | 0.0 | 0.0 | 0.00 | 0.00 | 0.00 | 89 | 1008.5 |
| 20260505075347 | 48 | 223 | 0.0 | 0.0 | 0.00 | 0.00 | 0.00 | 88 | 1008.5 |
| 20260505075144 | 48 | 223 | 0.0 | 0.0 | 0.00 | 0.00 | 0.00 | 88 | 1008.5 |
| 20260505074836 | 48 | 223 | 0.0 | 0.0 | 0.00 | 0.00 | 0.00 | 88 | 1008.4 |
| 20260505074634 | 48 | 223 | 0.0 | 0.0 | 0.00 | 0.00 | 0.00 | 88 | 1008.5 |
| 20260505074341 | 48 | 223 | 0.0 | 0.0 | 0.00 | 0.00 | 0.00 | 88 | 1008.5 |
| 20260505074141 | 48 | 223 | 0.0 | 0.0 | 0.00 | 0.00 | 0.00 | 88 | 1008.5 |
| 20260505073847 | 48 | 223 | 0.0 | 0.0 | 0.00 | 0.00 | 0.00 | 88 | 1008.5 |
| 20260505073648 | 48 | 223 | 0.0 | 0.0 | 0.00 | 0.00 | 0.00 | 88 | 1008.4 |
| 20260505073335 | 48 | 223 | 0.0 | 0.0 | 0.00 | 0.00 | 0.00 | 88 | 1008.5 |
| 20260505073136 | 48 | 223 | 0.0 | 0.0 | 0.00 | 0.00 | 0.00 | 88 | 1008.4 |
| 20260505072842 | 48 | 223 | 0.0 | 0.0 | 0.00 | 0.00 | 0.00 | 88 | 1008.4 |
| 20260505072645 | 48 | 223 | 0.0 | 0.0 | 0.00 | 0.00 | 0.00 | 88 | 1008.4 |
| 20260505072354 | 48 | 223 | 0.0 | 0.0 | 0.00 | 0.00 | 0.00 | 88 | 1008.4 |
| 20260505072135 | 48 | 223 | 0.0 | 0.0 | 0.00 | 0.00 | 0.00 | 88 | 1008.4 |
| 20260505071842 | 48 | 223 | 0.0 | 0.0 | 0.00 | 0.00 | 0.00 | 88 | 1008.4 |
| 20260505071643 | 48 | 223 | 0.0 | 0.0 | 0.00 | 0.00 | 0.00 | 88 | 1008.5 |
| 20260505071347 | 48 | 223 | 0.0 | 0.0 | 0.00 | 0.00 | 0.00 | 88 | 1008.4 |
| 20260505071144 | 48 | 223 | 0.0 | 0.0 | 0.00 | 0.00 | 0.00 | 88 | 1008.4 |
| 20260505070835 | 48 | 223 | 0.0 | 0.0 | 0.00 | 0.00 | 0.00 | 88 | 1008.4 |
| 20260505070635 | 48 | 223 | 0.0 | 0.0 | 0.00 | 0.00 | 0.00 | 88 | 1008.4 |
| 20260505070346 | 48 | 223 | 0.0 | 0.0 | 0.00 | 0.00 | 0.00 | 88 | 1008.4 |
| 20260505070146 | 48 | 223 | 0.0 | 0.0 | 0.00 | 0.00 | 0.00 | 88 | 1008.4 |
| 20260505065837 | 48 | 223 | 0.0 | 0.0 | 0.00 | 0.00 | 0.00 | 88 | 1008.4 |
| 20260505065636 | 48 | 223 | 0.0 | 0.0 | 0.00 | 0.00 | 0.00 | 88 | 1008.4 |
| 20260505065346 | 48 | 223 | 0.0 | 0.0 | 0.00 | 0.00 | 0.00 | 87 | 1008.4 |
| 20260505065143 | 48 | 223 | 0.0 | 0.0 | 0.00 | 0.00 | 0.00 | 87 | 1008.5 |
| 20260505064833 | 48 | 223 | 0.0 | 0.0 | 0.00 | 0.00 | 0.00 | 87 | 1008.5 |
| 20260505064633 | 48 | 223 | 0.0 | 0.0 | 0.00 | 0.00 | 0.00 | 87 | 1008.5 |
| 20260505064343 | 48 | 223 | 0.0 | 0.0 | 0.00 | 0.00 | 0.00 | 87 | 1008.5 |
| 20260505064140 | 48 | 223 | 0.0 | 0.0 | 0.00 | 0.00 | 0.00 | 87 | 1008.4 |
| 20260505063852 | 48 | 223 | 0.0 | 0.0 | 0.00 | 0.00 | 0.00 | 87 | 1008.4 |
| 20260505063712 | 48 | 223 | 0.0 | 0.0 | 0.00 | 0.00 | 0.00 | 87 | 1008.4 |
| 20260505063341 | 48 | 223 | 0.0 | 0.0 | 0.00 | 0.00 | 0.00 | 87 | 1008.4 |
| 20260505063140 | 48 | 223 | 0.0 | 0.0 | 0.00 | 0.00 | 0.00 | 87 | 1008.4 |
| 20260505062909 | 48 | 223 | 0.0 | 0.0 | 0.00 | 0.00 | 0.00 | 86 | 1008.4 |
| 20260505062708 | 48 | 223 | 0.0 | 0.0 | 0.00 | 0.00 | 0.00 | 86 | 1008.5 |
| 20260505062353 | 48 | 223 | 0.0 | 0.0 | 0.00 | 0.00 | 0.00 | 86 | 1008.5 |
| 20260505062135 | 49 | 223 | 0.0 | 0.0 | 0.00 | 0.00 | 0.00 | 86 | 1008.5 |
| 20260505061902 | 49 | 223 | 0.0 | 0.0 | 0.00 | 0.00 | 0.00 | 86 | 1008.5 |
| 20260505061643 | 49 | 223 | 0.0 | 0.0 | 0.00 | 0.00 | 0.00 | 86 | 1008.6 |
| 20260505061347 | 49 | 223 | 0.0 | 0.0 | 0.00 | 0.00 | 0.00 | 86 | 1008.6 |
| 20260505061149 | 49 | 223 | 0.0 | 0.0 | 0.00 | 0.00 | 0.00 | 85 | 1008.6 |
| 20260505060835 | 49 | 223 | 0.0 | 0.0 | 0.00 | 0.00 | 0.00 | 85 | 1008.6 |
| 20260505060636 | 49 | 223 | 0.0 | 0.0 | 0.00 | 0.00 | 0.00 | 85 | 1008.6 |
| 20260505060343 | 49 | 223 | 0.0 | 0.0 | 0.00 | 0.00 | 0.00 | 85 | 1008.6 |
| 20260505060142 | 49 | 223 | 0.0 | 0.0 | 0.00 | 0.00 | 0.00 | 85 | 1008.6 |
| 20260505055832 | 49 | 223 | 0.0 | 0.0 | 0.00 | 0.00 | 0.00 | 85 | 1008.6 |
| 20260505055650 | 49 | 223 | 0.0 | 0.0 | 0.00 | 0.00 | 0.00 | 85 | 1008.6 |
| 20260505055342 | 49 | 223 | 0.0 | 0.0 | 0.00 | 0.00 | 0.00 | 85 | 1008.6 |
| 20260505055137 | 49 | 223 | 0.0 | 0.0 | 0.00 | 0.00 | 0.00 | 84 | 1008.7 |
| 20260505054847 | 49 | 223 | 0.0 | 0.0 | 0.00 | 0.00 | 0.00 | 84 | 1008.6 |
| 20260505054645 | 49 | 223 | 0.0 | 0.0 | 0.00 | 0.00 | 0.00 | 84 | 1008.7 |
| 20260505054336 | 50 | 223 | 0.0 | 0.0 | 0.00 | 0.00 | 0.00 | 84 | 1008.7 |
| 20260505054134 | 50 | 223 | 0.0 | 0.0 | 0.00 | 0.00 | 0.00 | 83 | 1008.7 |
| 20260505053844 | 50 | 223 | 0.0 | 0.0 | 0.00 | 0.00 | 0.00 | 83 | 1008.7 |
| 20260505053642 | 50 | 223 | 0.0 | 0.0 | 0.00 | 0.00 | 0.00 | 83 | 1008.7 |
| 20260505053333 | 50 | 223 | 0.0 | 0.0 | 0.00 | 0.00 | 0.00 | 83 | 1008.8 |
| 20260505053132 | 50 | 223 | 0.0 | 0.0 | 0.00 | 0.00 | 0.00 | 83 | 1008.7 |
| 20260505052844 | 50 | 223 | 0.0 | 0.0 | 0.00 | 0.00 | 0.00 | 83 | 1008.7 |
| 20260505052643 | 50 | 223 | 0.0 | 0.0 | 0.00 | 0.00 | 0.00 | 83 | 1008.8 |
| 20260505052333 | 50 | 223 | 0.0 | 0.0 | 0.00 | 0.00 | 0.00 | 82 | 1008.8 |
| 20260505052152 | 50 | 223 | 0.0 | 0.0 | 0.00 | 0.00 | 0.00 | 82 | 1008.8 |
| 20260505051903 | 50 | 223 | 0.0 | 0.0 | 0.00 | 0.00 | 0.00 | 82 | 1008.8 |
| 20260505051641 | 50 | 223 | 0.0 | 0.0 | 0.00 | 0.00 | 0.00 | 82 | 1008.9 |
| 20260505051349 | 50 | 223 | 0.0 | 0.0 | 0.00 | 0.00 | 0.00 | 82 | 1008.9 |
| 20260505051208 | 50 | 223 | 0.0 | 0.0 | 0.00 | 0.00 | 0.00 | 82 | 1008.9 |
| 20260505050833 | 50 | 223 | 0.0 | 0.0 | 0.00 | 0.00 | 0.00 | 82 | 1008.9 |
| 20260505050657 | 51 | 223 | 0.0 | 0.0 | 0.00 | 0.00 | 0.00 | 81 | 1009.0 |
| 20260505050343 | 51 | 223 | 0.0 | 0.0 | 0.00 | 0.00 | 0.00 | 81 | 1009.0 |
| 20260505050146 | 51 | 223 | 0.0 | 0.0 | 0.00 | 0.00 | 0.00 | 81 | 1008.9 |
| 20260505041638 | 52 | 223 | 0.0 | 0.0 | 0.00 | 0.00 | 0.00 | 79 | 1008.9 |
| 20260505041348 | 52 | 223 | 0.0 | 0.0 | 0.00 | 0.00 | 0.00 | 78 | 1009.0 |
| 20260505041144 | 52 | 223 | 0.0 | 0.0 | 0.00 | 0.00 | 0.00 | 78 | 1008.9 |
| 20260505040836 | 52 | 223 | 0.0 | 0.0 | 0.00 | 0.00 | 0.00 | 78 | 1008.9 |
| 20260505040634 | 52 | 223 | 0.0 | 0.0 | 0.00 | 0.00 | 0.00 | 78 | 1008.9 |
| 20260505040347 | 52 | 223 | 0.0 | 0.0 | 0.00 | 0.00 | 0.00 | 78 | 1008.9 |
| 20260505040145 | 53 | 223 | 0.0 | 0.0 | 0.00 | 0.00 | 0.00 | 78 | 1008.9 |
| 20260505035844 | 53 | 223 | 0.0 | 0.0 | 0.00 | 0.00 | 0.00 | 77 | 1008.9 |
| 20260505035708 | 53 | 223 | 0.0 | 0.0 | 0.00 | 0.00 | 0.00 | 77 | 1008.9 |
| 20260505035333 | 53 | 223 | 0.0 | 0.0 | 0.00 | 0.00 | 0.00 | 76 | 1008.9 |
| 20260505035135 | 53 | 223 | 0.0 | 0.0 | 0.00 | 0.00 | 0.00 | 76 | 1008.9 |
| 20260505034842 | 53 | 223 | 0.0 | 0.0 | 0.00 | 0.00 | 0.00 | 76 | 1008.9 |
| 20260505034645 | 53 | 223 | 0.0 | 0.0 | 0.00 | 0.00 | 0.00 | 76 | 1008.9 |
| 20260505034331 | 53 | 223 | 0.0 | 0.0 | 0.00 | 0.00 | 0.00 | 76 | 1009.0 |
| 20260505034134 | 53 | 223 | 0.0 | 0.0 | 0.00 | 0.00 | 0.00 | 76 | 1009.0 |
| 20260505033901 | 53 | 223 | 0.0 | 0.0 | 0.00 | 0.00 | 0.00 | 76 | 1009.0 |
| 20260505033642 | 53 | 223 | 0.0 | 0.0 | 0.00 | 0.00 | 0.00 | 76 | 1008.9 |
| 20260505033350 | 54 | 223 | 0.0 | 0.0 | 0.00 | 0.00 | 0.00 | 76 | 1009.0 |
| 20260505033147 | 54 | 223 | 0.0 | 0.0 | 0.00 | 0.00 | 0.00 | 76 | 1009.0 |
| 20260505032857 | 54 | 223 | 0.0 | 0.0 | 0.00 | 0.00 | 0.00 | 76 | 1009.0 |
| 20260505032634 | 54 | 223 | 0.0 | 0.0 | 0.00 | 0.00 | 0.00 | 76 | 1009.0 |
| 20260505032346 | 54 | 223 | 0.0 | 0.0 | 0.00 | 0.00 | 0.00 | 75 | 1009.0 |
| 20260505032144 | 54 | 223 | 0.0 | 0.0 | 0.00 | 0.00 | 0.00 | 75 | 1009.0 |
| 20260505031835 | 54 | 223 | 0.0 | 0.0 | 0.00 | 0.00 | 0.00 | 75 | 1009.1 |
| 20260505031653 | 54 | 223 | 0.0 | 0.0 | 0.00 | 0.00 | 0.00 | 75 | 1009.1 |
| 20260505031342 | 54 | 223 | 0.0 | 0.0 | 0.00 | 0.00 | 0.00 | 74 | 1009.1 |
| 20260505031202 | 54 | 223 | 0.0 | 0.0 | 0.00 | 0.00 | 0.00 | 74 | 1009.1 |
| 20260505030851 | 54 | 223 | 0.0 | 0.0 | 0.00 | 0.00 | 0.00 | 74 | 1009.1 |
| 20260505030649 | 54 | 223 | 0.0 | 0.0 | 0.00 | 0.00 | 0.00 | 74 | 1009.1 |
| 20260505030341 | 54 | 223 | 0.0 | 0.0 | 0.00 | 0.00 | 0.00 | 74 | 1009.2 |
| 20260505030139 | 54 | 223 | 0.0 | 0.0 | 0.00 | 0.00 | 0.00 | 73 | 1009.2 |
| 20260505025850 | 54 | 223 | 0.0 | 0.0 | 0.00 | 0.00 | 0.00 | 73 | 1009.1 |
| 20260505025648 | 54 | 223 | 0.0 | 0.0 | 0.00 | 0.00 | 0.00 | 73 | 1009.2 |